Dumsat

operational
NORAD ID: 26106 Int'l Des: 2000-015 Owner: STSM Country: F
MEOELLIPTICALHEO_ELLIPTICALMOLNIYA_TYPE

Dumsatについて

説明を読み込み中...

リアルタイム位置

3D地球を読み込み中...

次回通過

高度履歴

Altitude vs Time

uPlot chart will show altitude changes over time

軌道要素

1 26106U 00015A 26063.21587720 .00000089 00000-0 15522-3 0 9995
2 26106 65.0984 170.4210 5433758 269.6704 31.1970 4.61257382433361
Epoch: Mar 4, 2026 • Age: 17 hours

現在のステータス

高度 16773.9 km
速度 2.88 km/s
衛星直下点 63.35°N, 174.89°E
打ち上げ日 Mar 20, 2000
運用期間 25.9 years
タイプ other

技術仕様

分類 Payload
質量 1191.00 kg
乾燥質量 1191.00 kg
総質量 3382.00 kg
長さ 2.00 m
直径 1.50 m
スパン 2.00 m
形状 Cyl
製造者 AEML
バスタイプ Cluster dummy
フェーズステータス Attached in Orbit
所有者/国 STSM/F

大規模コンステレーション

Loading constellations...